Temperature
9 9 9 9 9 8 7 6 6 7 6 5 2 0 0 -0 -2 -2 -3 -3 -3 -3 -4 -5 -6 -7 -8 -9 -9 -10 -10 -11 -12 -12 -13 -13 -13 -13 -13 -13 -13 -13 -12 -12
8 9 8 8 8 7 7 6 6 6 6 4 2 1 -0 -1 -2 -2 -3 -3 -3 -4 -4 -5 -6 -7 -8 -9 -9 -10 -10 -11 -12 -12 -13 -13 -13 -13 -13 -13 -13 -12 -12 -12
7 6 8 10 9 7 6 6 6 6 5 1 -0 -1 -1 -1 -1 -2 -2 -2 -3 -4 -5 -5 -6 -7 -8 -8 -9 -9 -10 -11 -12 -13 -13 -13 -13 -13 -13 -13 -13 -13 -12 -12
6 8 12 11 8 7 7 7 6 6 4 2 1 0 -0 -1 -1 -1 -2 -3 -3 -4 -5 -5 -6 -7 -8 -8 -8 -9 -10 -11 -12 -12 -13 -13 -13 -13 -13 -13 -13 -13 -13 -12
5 7 7 9 8 8 7 7 6 4 2 0 -0 -2 -3 -2 -2 -2 -2 -3 -4 -4 -5 -5 -6 -7 -7 -7 -8 -9 -10 -11 -11 -12 -13 -13 -13 -13 -13 -13 -13 -13 -13 -12
4 8 9 11 8 8 7 6 7 5 1 -2 -2 -2 -2 -1 -2 -2 -2 -3 -4 -4 -5 -5 -6 -6 -7 -7 -8 -9 -10 -10 -11 -12 -12 -13 -13 -13 -13 -13 -13 -13 -13 -13
4 5 7 8 7 7 8 9 7 6 3 0 0 1 2 -0 -2 -2 -3 -3 -4 -4 -5 -5 -6 -6 -7 -7 -8 -9 -9 -10 -11 -11 -12 -12 -13 -13 -13 -13 -13 -13 -13 -13
3 4 7 7 5 6 7 8 8 7 6 3 3 2 1 -1 -2 -2 -3 -4 -4 -4 -4 -5 -6 -6 -6 -7 -8 -8 -9 -9 -10 -11 -12 -12 -12 -12 -13 -13 -13 -13 -13 -13
6 9 11 10 11 11 9 8 8 7 6 5 3 2 0 -1 -2 -2 -3 -4 -4 -4 -4 -5 -6 -6 -6 -7 -7 -8 -8 -9 -10 -10 -11 -11 -12 -12 -13 -13 -13 -13 -13 -13
5 7 10 10 10 10 9 8 8 7 5 4 3 1 -0 -1 -2 -2 -3 -3 -4 -4 -4 -5 -6 -6 -6 -7 -7 -8 -8 -8 -9 -10 -10 -11 -11 -12 -13 -13 -13 -13 -13 -13
6 7 9 11 11 10 8 7 7 5 5 4 3 1 0 -1 -1 -2 -3 -3 -3 -4 -4 -5 -5 -6 -6 -7 -7 -7 -8 -8 -9 -9 -10 -10 -11 -11 -12 -12 -13 -13 -13 -13
11 13 10 13 14 11 8 7 6 5 3 3 2 1 0 -1 -1 -2 -3 -3 -3 -4 -4 -5 -5 -6 -6 -7 -7 -7 -8 -8 -9 -9 -10 -10 -10 -10 -11 -12 -12 -12 -13 -13
16 15 13 13 12 10 9 7 6 5 4 3 2 1 0 -1 -1 -2 -3 -3 -3 -4 -4 -4 -5 -5 -6 -6 -7 -7 -7 -8 -8 -9 -9 -10 -10 -10 -10 -10 -11 -11 -12 -12
15 13 11 11 11 10 8 6 5 4 3 3 2 0 -0 -1 -1 -2 -2 -3 -3 -3 -4 -4 -5 -5 -6 -6 -6 -7 -7 -7 -8 -9 -9 -9 -9 -10 -10 -10 -10 -10 -11 -11
14 13 12 11 10 8 7 5 4 3 2 1 1 0 -0 -1 -1 -2 -2 -3 -3 -3 -4 -4 -4 -5 -5 -6 -6 -6 -7 -7 -7 -8 -8 -9 -9 -9 -10 -10 -10 -10 -10 -10
14 12 10 9 8 8 6 4 4 3 3 2 1 0 -0 -1 -2 -2 -2 -3 -3 -3 -3 -4 -4 -5 -5 -5 -6 -6 -6 -7 -7 -7 -8 -8 -8 -9 -9 -10 -10 -10 -11 -11
12 11 9 8 8 7 7 6 5 4 3 3 2 1 -1 -2 -2 -2 -2 -3 -3 -3 -3 -4 -4 -4 -5 -5 -5 -5 -6 -6 -6 -7 -7 -7 -8 -8 -9 -9 -10 -10 -10 -11
15 14 13 12 11 9 7 6 5 4 4 3 2 0 -1 -1 -1 -1 -2 -2 -3 -3 -3 -3 -4 -4 -4 -5 -5 -5 -5 -6 -6 -6 -6 -6 -7 -8 -8 -9 -9 -10 -10 -11
16 14 12 10 9 9 8 6 5 4 3 2 1 1 0 -1 -1 -2 -2 -2 -2 -3 -3 -3 -4 -4 -4 -5 -5 -5 -5 -5 -5 -5 -5 -6 -6 -7 -7 -8 -9 -9 -10 -11
17 14 12 10 9 8 7 6 6 4 3 2 1 0 -0 -1 -2 -2 -2 -2 -2 -3 -3 -3 -4 -4 -4 -4 -5 -5 -5 -5 -5 -5 -5 -5 -6 -6 -7 -7 -8 -8 -9 -10
17 15 13 10 9 8 7 6 6 4 3 2 1 1 0 -1 -2 -2 -2 -2 -2 -3 -3 -3 -3 -4 -4 -4 -5 -5 -5 -5 -5 -5 -5 -5 -6 -6 -6 -7 -7 -8 -8 -9
17 15 13 11 9 7 7 6 5 4 3 2 2 1 -0 -1 -2 -2 -2 -2 -3 -3 -3 -3 -3 -4 -4 -4 -4 -5 -5 -5 -5 -5 -5 -6 -6 -6 -6 -7 -7 -7 -8 -8
16 15 13 11 9 8 7 6 5 4 3 3 2 1 0 -0 -1 -1 -1 -2 -2 -3 -3 -3 -3 -4 -4 -4 -4 -5 -5 -5 -5 -5 -6 -6 -6 -6 -7 -7 -7 -7 -7 -8
16 14 13 10 8 7 6 6 5 4 3 2 2 2 1 -0 -1 -1 -2 -2 -3 -3 -3 -3 -4 -4 -4 -4 -5 -5 -5 -5 -5 -6 -6 -6 -7 -7 -7 -7 -7 -8 -8 -8
15 14 12 10 8 8 6 5 4 3 3 2 1 1 0 -0 -0 -1 -2 -2 -3 -3 -3 -3 -4 -4 -4 -4 -5 -5 -5 -5 -6 -6 -6 -6 -7 -7 -7 -7 -8 -8 -8 -8
14 13 13 12 10 8 7 5 4 4 3 2 1 1 -0 -1 -1 -2 -3 -3 -3 -3 -3 -4 -4 -4 -4 -4 -5 -5 -5 -5 -6 -6 -6 -7 -7 -7 -7 -8 -8 -8 -8 -8
13 12 11 9 8 7 6 5 4 4 3 3 2 2 1 -0 -1 -2 -3 -3 -3 -3 -4 -4 -4 -4 -4 -5 -5 -5 -5 -6 -6 -6 -7 -7 -7 -7 -8 -8 -8 -8 -9 -9
Wind_Speed
8 7 4 7 8 8 10 9 10 10 7 8 11 12 10 8 7 5 2 1 4 6 7 7 8 8 9 10 10 10 11 12 12 12 12 12 13 12 12 13 15 15 17 18
6 4 5 7 9 9 9 7 10 11 11 2 8 8 8 8 7 5 3 2 4 6 7 8 8 9 10 10 10 9 10 11 12 13 13 13 12 12 13 14 15 15 16 18
5 8 8 9 7 8 8 9 9 10 7 10 7 11 11 9 7 6 4 3 3 4 5 6 7 8 9 9 9 9 10 11 12 12 13 13 14 13 13 13 13 14 15 17
3 8 5 7 2 7 8 9 10 7 7 12 8 7 6 7 8 7 5 3 1 3 4 5 6 7 8 8 8 9 10 11 11 11 11 12 11 12 11 9 11 11 13 16
1 3 10 9 5 6 6 9 8 9 9 9 12 7 3 6 7 7 6 4 2 1 2 5 6 7 7 8 8 9 10 11 11 11 11 11 11 11 9 9 8 10 11 14
4 2 7 7 3 3 3 7 6 11 13 13 12 5 6 9 8 7 6 4 2 0 2 4 6 6 7 8 9 10 11 11 11 11 11 10 11 9 8 8 9 11 11 12
5 7 10 6 6 6 2 7 5 11 13 16 12 6 9 12 8 7 6 5 3 2 2 4 5 6 7 7 9 10 10 10 10 11 10 9 9 8 9 9 9 9 10 10
6 5 10 7 9 10 10 3 7 9 10 10 8 10 13 11 9 8 7 5 3 2 2 4 5 6 6 7 8 9 9 9 10 10 9 10 9 9 8 8 7 7 7 9
11 11 6 11 11 7 7 8 8 9 8 11 11 10 10 10 9 8 7 5 3 2 2 3 5 4 5 7 8 9 9 9 9 9 8 8 7 8 8 7 6 6 6 7
8 14 10 11 9 6 8 8 9 9 11 12 12 12 11 11 9 8 7 5 4 3 2 3 5 5 5 7 7 7 8 9 8 7 8 7 7 7 7 7 6 6 7 7
9 11 8 8 11 10 9 9 9 9 9 12 15 12 12 11 10 8 7 5 4 3 1 2 4 5 6 7 7 7 8 8 8 9 8 7 8 7 9 6 10 8 6 5
12 11 9 8 8 13 13 12 14 12 10 10 13 14 13 11 9 8 7 6 5 4 1 1 3 4 6 6 6 6 7 7 6 6 7 8 7 8 13 14 17 17 15 12
9 4 7 2 8 13 13 15 15 14 15 12 10 12 14 10 9 8 7 7 6 4 2 1 2 4 5 6 6 6 7 7 6 7 7 8 8 8 10 12 16 16 16 16
8 6 4 6 9 11 11 13 11 10 9 12 12 11 11 9 8 9 8 7 6 4 3 2 2 4 5 6 6 6 7 8 8 6 6 7 7 8 8 10 11 10 12 16
12 11 8 7 10 11 12 12 12 11 11 10 10 12 13 12 11 9 8 7 6 5 4 3 3 4 5 6 6 6 6 6 6 5 6 7 7 8 8 9 9 10 9 11
7 7 9 10 14 15 13 13 15 16 14 13 13 13 12 11 10 8 8 7 6 6 5 5 4 4 5 5 6 5 5 10 9 6 6 7 7 7 8 9 10 10 10 10
11 10 11 11 16 15 18 18 18 19 17 17 16 13 11 10 9 8 8 7 7 6 6 6 5 4 5 5 5 4 5 6 10 7 6 6 6 6 8 9 9 10 10 13
18 15 16 15 20 20 19 15 15 17 17 16 14 14 14 15 14 12 9 7 5 5 6 7 6 5 5 5 4 3 4 4 5 5 5 6 6 6 7 8 9 10 10 11
16 14 15 15 18 19 19 18 17 16 14 16 17 17 15 13 11 9 8 8 8 7 6 7 7 4 4 5 3 1 3 4 5 5 5 8 8 6 7 8 9 9 10 11
14 13 14 14 15 16 17 16 15 15 15 16 16 14 13 12 10 10 10 9 8 6 6 7 6 5 5 5 1 1 2 4 4 5 5 5 6 7 7 8 9 10 10 11
15 14 15 16 15 15 16 17 18 18 17 18 18 18 16 13 12 11 9 8 7 8 8 9 6 5 5 4 2 1 1 3 4 4 5 5 6 7 8 8 9 10 11 11
15 16 17 16 16 15 15 16 16 17 18 17 16 14 13 13 13 10 8 7 6 11 9 5 4 7 7 5 3 2 1 2 3 3 4 5 6 7 8 9 9 10 10 11
13 15 17 17 17 14 14 15 16 17 18 19 19 18 17 15 13 12 10 9 7 12 9 6 9 11 9 5 4 3 2 2 2 3 3 4 5 6 7 8 9 9 10 10
15 15 15 14 14 15 17 16 15 14 14 15 15 16 15 13 11 9 4 12 17 15 9 10 13 12 9 5 4 4 3 3 3 3 3 4 4 5 6 7 8 9 10 11
15 16 16 18 18 15 15 15 13 11 12 10 11 12 12 11 10 11 9 9 16 15 8 11 15 13 7 5 5 5 4 4 4 3 3 3 4 5 6 6 7 9 10 10
14 16 15 15 13 12 13 14 13 13 13 12 12 12 11 8 7 9 10 10 12 14 10 7 6 8 5 6 6 6 5 4 3 2 3 4 4 5 5 6 8 8 10 12
11 11 10 9 9 12 13 14 15 15 15 15 14 13 13 12 11 10 11 11 10 9 8 8 6 6 6 6 5 5 6 5 5 5 4 4 4 5 6 8 9 11 13 14
Wind_Direction
263 277 267 246 231 202 197 203 219 247 242 231 187 171 169 165 168 169 174 29 17 7 353 346 342 336 333 332 336 338 337 338 335 331 329 329 330 331 333 336 339 335 335 335
295 329 310 272 248 222 222 220 236 261 269 177 128 131 151 168 174 176 168 53 20 3 352 344 338 334 335 335 335 335 336 335 333 335 335 335 335 340 342 342 340 340 340 340
292 318 338 297 245 194 213 215 206 229 227 145 153 171 175 179 181 175 148 82 23 354 338 330 329 331 333 332 330 335 334 333 334 335 336 337 342 345 343 341 342 343 343 346
317 354 295 254 181 195 221 243 217 217 171 169 157 146 152 168 174 168 146 120 17 334 326 325 327 331 329 329 333 335 334 333 334 336 336 336 341 343 339 336 341 342 343 349
88 302 280 291 231 200 214 274 214 184 149 126 121 109 183 195 174 164 152 147 169 274 298 325 335 333 334 335 337 338 340 338 336 336 336 339 343 341 337 335 339 341 345 348
143 230 257 256 164 136 88 279 215 161 156 154 152 175 214 179 163 152 146 143 147 318 345 352 339 338 344 341 343 344 341 336 335 338 337 338 341 338 336 336 345 346 345 347
187 233 265 247 156 137 190 263 166 158 161 166 186 188 152 149 153 153 146 144 137 88 27 349 337 347 350 343 342 335 332 333 337 338 336 343 339 335 335 342 342 339 340 341
166 213 260 188 147 188 216 135 142 151 154 155 144 126 138 149 153 153 150 151 144 99 31 351 350 356 348 339 327 326 330 334 334 334 341 351 334 333 334 334 332 332 336 343
194 222 243 176 199 202 154 159 163 154 149 139 141 152 156 157 158 158 161 165 156 119 51 2 354 354 341 323 323 329 332 331 328 331 331 335 329 330 336 338 335 342 342 345
243 262 247 219 226 193 177 170 162 149 149 153 155 160 161 161 163 164 167 167 158 124 67 3 343 342 323 315 323 328 329 326 327 330 332 329 337 342 340 340 340 344 342 338
253 269 284 251 215 189 166 145 140 139 152 159 154 159 165 165 168 170 169 167 158 143 121 336 332 331 325 321 324 328 324 322 326 335 328 328 339 337 342 330 350 351 333 325
236 228 206 236 202 169 159 163 159 149 148 157 161 163 163 167 167 166 168 167 164 161 157 305 324 323 319 315 319 324 330 327 322 327 331 332 327 331 344 350 352 353 350 348
226 206 192 227 166 168 168 165 163 161 160 163 163 162 162 162 167 164 167 173 176 178 190 233 305 314 313 311 316 320 321 321 318 331 329 330 331 332 331 336 344 348 348 345
210 154 188 183 179 169 157 153 149 141 149 157 157 160 160 154 160 170 179 184 182 185 190 203 280 301 303 306 313 320 319 322 328 313 318 321 322 324 326 329 331 330 336 337
213 199 196 159 142 142 142 142 145 152 152 155 159 163 166 167 175 181 182 182 182 186 189 208 262 288 295 305 316 318 321 316 312 312 318 321 323 328 331 330 330 327 327 330
175 155 144 150 160 160 158 162 169 172 170 170 172 176 177 173 170 169 178 183 182 193 201 212 243 267 289 300 313 311 312 330 337 330 325 326 327 333 338 338 337 337 337 331
160 179 178 179 180 181 183 183 180 176 175 178 181 173 163 160 166 182 192 194 195 203 207 213 229 259 284 295 299 299 307 321 339 334 322 320 325 333 336 337 338 339 338 338
204 195 184 184 185 187 189 184 178 176 179 181 167 165 172 180 188 191 186 177 189 217 228 217 220 247 267 284 283 290 309 311 314 315 319 326 341 335 333 334 335 335 336 340
205 191 183 181 180 182 183 184 182 179 171 165 170 180 186 190 186 175 166 173 192 213 219 201 217 225 259 281 310 265 318 317 321 324 323 340 346 333 334 335 335 333 336 343
196 183 176 175 173 176 180 179 173 171 170 170 172 176 184 189 180 172 174 194 207 201 182 191 208 220 242 267 289 204 317 319 324 329 332 336 336 335 335 338 338 337 342 344
187 177 173 173 174 175 176 172 171 173 173 174 178 184 188 186 179 174 179 207 221 200 198 207 198 201 230 236 175 165 304 315 322 323 330 333 333 334 335 337 339 340 344 343
180 177 176 172 171 175 174 173 174 172 171 178 183 179 176 179 182 188 203 205 188 183 185 194 190 211 222 199 162 174 230 295 307 311 321 325 328 331 332 333 335 337 338 336
177 176 174 173 173 169 165 172 175 174 177 181 183 184 186 186 185 189 205 207 188 191 185 190 202 210 212 172 169 181 203 248 282 299 310 313 317 320 322 325 328 330 329 331
171 170 168 160 154 160 174 180 177 179 181 184 186 184 181 180 191 202 197 182 186 193 193 199 205 207 200 165 178 189 204 227 254 273 291 301 305 309 313 318 322 324 326 328
166 161 158 162 172 181 179 170 167 168 171 180 184 184 186 185 186 190 183 178 183 185 186 201 205 204 183 173 188 197 206 221 230 234 266 291 300 307 310 314 319 320 322 325
169 173 176 181 178 171 168 170 177 179 180 184 189 189 189 185 172 169 176 181 186 187 183 191 201 198 174 184 195 200 205 220 244 246 255 274 288 298 305 312 312 314 316 320
155 159 160 163 169 170 172 177 180 182 184 185 185 186 186 184 183 180 180 183 187 188 185 187 189 188 188 193 197 203 207 211 218 227 242 258 274 284 296 303 307 309 312 317
Height
1600 1596 1596 1595 1594 1596 1599 1599 1601 1589 1586 1583 1586 1589 1592 1594 1595 1595 1594 1592 1589 1586 1583 1579 1575 1570 1564 1558 1551 1544 1537 1530 1524 1518 1511 1505 1498 1491 1484 1478 1470 1463 1455 1446
1600 1595 1596 1593 1589 1592 1593 1593 1591 1585 1583 1579 1582 1587 1590 1592 1592 1592 1591 1589 1587 1584 1581 1578 1574 1569 1563 1557 1550 1544 1537 1531 1524 1518 1511 1504 1498 1492 1485 1479 1472 1464 1457 1449
1605 1601 1593 1588 1580 1585 1584 1582 1581 1580 1577 1580 1583 1585 1586 1588 1589 1589 1587 1586 1585 1583 1580 1577 1573 1568 1562 1556 1550 1543 1537 1531 1524 1517 1511 1504 1498 1492 1486 1480 1473 1466 1460 1452
1612 1603 1592 1578 1575 1575 1576 1572 1571 1570 1571 1575 1577 1581 1583 1585 1586 1585 1585 1585 1583 1581 1579 1576 1572 1568 1562 1556 1550 1543 1537 1531 1524 1517 1511 1505 1499 1493 1487 1481 1476 1470 1463 1457
1616 1610 1598 1578 1572 1572 1574 1569 1563 1565 1569 1574 1576 1579 1582 1582 1583 1583 1583 1583 1581 1579 1577 1575 1571 1566 1561 1555 1549 1543 1536 1530 1524 1518 1511 1505 1500 1494 1489 1483 1478 1473 1467 1461
1618 1608 1594 1570 1570 1569 1572 1570 1558 1559 1564 1569 1574 1579 1576 1577 1579 1580 1581 1580 1579 1578 1576 1573 1570 1565 1560 1555 1548 1542 1537 1531 1526 1519 1513 1507 1501 1496 1491 1486 1481 1476 1471 1465
1615 1611 1586 1566 1567 1570 1575 1560 1553 1555 1558 1563 1566 1568 1570 1573 1575 1577 1578 1578 1577 1576 1574 1571 1568 1565 1560 1555 1549 1544 1538 1533 1527 1520 1514 1508 1503 1498 1493 1488 1483 1478 1473 1468
1613 1611 1584 1561 1564 1565 1556 1549 1550 1553 1555 1559 1562 1564 1567 1570 1572 1574 1575 1575 1575 1574 1572 1570 1567 1564 1560 1555 1550 1545 1540 1534 1528 1522 1515 1510 1504 1498 1493 1488 1483 1479 1474 1470
1582 1568 1551 1550 1547 1547 1547 1547 1548 1550 1554 1557 1559 1561 1564 1567 1569 1571 1572 1572 1572 1571 1570 1568 1566 1562 1559 1555 1550 1546 1541 1535 1529 1523 1517 1511 1504 1498 1493 1489 1484 1480 1476 1472
1568 1551 1544 1544 1543 1543 1543 1544 1546 1548 1551 1554 1555 1558 1561 1563 1566 1568 1569 1570 1570 1569 1568 1567 1564 1561 1558 1555 1551 1546 1541 1536 1530 1524 1518 1512 1506 1500 1494 1489 1485 1481 1477 1473
1558 1544 1539 1535 1535 1536 1538 1540 1543 1545 1548 1550 1553 1554 1557 1560 1563 1565 1566 1567 1567 1567 1566 1565 1563 1560 1557 1554 1550 1546 1541 1536 1531 1525 1520 1514 1508 1502 1496 1491 1488 1483 1478 1474
1542 1532 1532 1529 1529 1531 1532 1534 1538 1541 1544 1547 1549 1551 1554 1557 1559 1561 1563 1564 1564 1564 1564 1563 1561 1559 1556 1553 1549 1545 1540 1535 1530 1525 1520 1515 1510 1505 1499 1493 1488 1483 1478 1475
1527 1526 1525 1524 1525 1526 1527 1530 1534 1537 1540 1543 1546 1549 1551 1553 1556 1558 1560 1561 1561 1562 1561 1560 1559 1557 1555 1552 1548 1544 1540 1535 1531 1526 1521 1516 1510 1505 1499 1495 1490 1484 1478 1474
1521 1521 1519 1518 1519 1521 1523 1527 1531 1534 1537 1540 1542 1545 1548 1550 1553 1555 1556 1558 1559 1559 1559 1558 1557 1555 1553 1550 1547 1544 1540 1536 1531 1526 1522 1517 1511 1506 1500 1494 1489 1484 1479 1474
1512 1513 1513 1512 1514 1516 1519 1522 1525 1529 1532 1535 1538 1541 1543 1546 1549 1551 1553 1555 1556 1556 1556 1555 1555 1553 1551 1549 1546 1542 1539 1535 1530 1526 1522 1517 1512 1507 1502 1496 1490 1485 1479 1474
1503 1504 1504 1505 1507 1509 1512 1515 1518 1522 1526 1529 1533 1536 1540 1543 1546 1548 1550 1551 1553 1553 1553 1553 1552 1551 1549 1547 1544 1541 1538 1534 1530 1526 1521 1516 1511 1506 1501 1496 1491 1485 1480 1474
1495 1493 1495 1497 1499 1500 1503 1506 1510 1515 1520 1524 1528 1532 1536 1538 1541 1544 1546 1548 1549 1550 1550 1550 1549 1548 1547 1545 1543 1540 1537 1533 1529 1525 1521 1516 1511 1506 1501 1496 1491 1486 1481 1476
1482 1484 1486 1489 1491 1493 1496 1501 1505 1510 1515 1519 1524 1527 1530 1533 1536 1539 1542 1544 1546 1547 1547 1547 1546 1545 1544 1543 1541 1539 1536 1533 1529 1525 1520 1515 1511 1506 1501 1496 1491 1486 1481 1476
1472 1474 1477 1481 1484 1487 1490 1494 1499 1505 1510 1514 1518 1521 1524 1528 1532 1535 1538 1540 1541 1543 1543 1544 1543 1543 1542 1541 1539 1537 1535 1532 1529 1525 1521 1516 1512 1507 1502 1496 1491 1486 1481 1475
1464 1466 1470 1473 1477 1480 1483 1488 1493 1499 1504 1508 1512 1516 1520 1524 1527 1530 1532 1535 1537 1539 1539 1540 1540 1539 1539 1538 1537 1535 1533 1531 1528 1525 1521 1517 1512 1507 1502 1497 1492 1486 1481 1475
1456 1458 1461 1465 1469 1473 1477 1481 1486 1491 1497 1502 1506 1509 1514 1518 1522 1524 1527 1530 1532 1534 1535 1536 1536 1536 1536 1535 1534 1533 1531 1530 1527 1524 1521 1517 1512 1508 1503 1498 1492 1487 1481 1476
1448 1451 1454 1458 1462 1466 1470 1475 1480 1486 1491 1495 1500 1505 1509 1512 1516 1519 1522 1525 1528 1529 1531 1531 1532 1532 1532 1532 1531 1530 1529 1528 1526 1523 1520 1516 1512 1508 1503 1499 1493 1488 1482 1476
1440 1443 1447 1450 1455 1459 1464 1469 1473 1479 1484 1488 1493 1497 1501 1505 1509 1512 1515 1519 1522 1524 1526 1527 1528 1528 1528 1528 1528 1527 1527 1525 1524 1521 1519 1516 1512 1508 1504 1499 1494 1488 1483 1476
1432 1436 1440 1444 1449 1453 1456 1461 1467 1473 1479 1484 1488 1492 1496 1499 1503 1507 1512 1515 1517 1519 1521 1523 1523 1524 1524 1524 1524 1524 1523 1522 1521 1519 1517 1514 1511 1507 1503 1499 1494 1488 1483 1477
1424 1428 1432 1436 1440 1443 1449 1455 1461 1466 1471 1476 1481 1485 1489 1493 1498 1502 1505 1508 1511 1514 1516 1517 1518 1519 1520 1520 1520 1520 1520 1519 1518 1517 1515 1512 1509 1506 1502 1497 1493 1488 1482 1476
1416 1419 1423 1428 1432 1437 1441 1447 1452 1457 1462 1467 1472 1477 1482 1486 1491 1496 1499 1502 1505 1508 1510 1512 1513 1514 1515 1515 1516 1516 1516 1516 1515 1514 1512 1510 1507 1504 1500 1496 1491 1486 1481 1475
1408 1413 1417 1421 1425 1429 1434 1439 1444 1449 1454 1459 1464 1469 1474 1478 1483 1487 1491 1495 1498 1501 1504 1506 1508 1509 1510 1511 1511 1512 1512 1512 1511 1510 1508 1506 1504 1501 1498 1494 1489 1484 1479 1474